| time (UTC) | temp F | wind direction | speed MPH | gust MPH | rain 1hr in | rain 24hr in | rain mn in | humidity % | barometer mb |
| 20260502220033 | 80 | 344 | 4.0 | 11.0 | 0.00 | 0.00 | 0.00 | 39 | 1015.1 |
| 20260502214531 | 78 | 356 | 2.0 | 6.0 | 0.00 | 0.00 | 0.00 | 43 | 1015.3 |
| 20260502213108 | 75 | 350 | 2.0 | 6.0 | 0.00 | 0.00 | 0.00 | 46 | 1015.5 |
| 20260502211533 | 74 | 337 | 3.0 | 8.0 | 0.00 | 0.00 | 0.00 | 48 | 1015.7 |
| 20260502210030 | 73 | 294 | 3.0 | 7.0 | 0.00 | 0.00 | 0.00 | 51 | 1015.9 |
| 20260502204530 | 73 | 278 | 3.0 | 6.0 | 0.00 | 0.00 | 0.00 | 52 | 1016.0 |
| 20260502203031 | 73 | 300 | 4.0 | 7.0 | 0.00 | 0.00 | 0.00 | 51 | 1015.9 |
| 20260502201604 | 75 | 277 | 3.0 | 7.0 | 0.00 | 0.00 | 0.00 | 50 | 1016.0 |
| 20260502200029 | 75 | 120 | 2.0 | 6.0 | 0.00 | 0.00 | 0.00 | 49 | 1016.2 |
| 20260502194532 | 73 | 316 | 1.0 | 4.0 | 0.00 | 0.00 | 0.00 | 54 | 1016.4 |
| 20260502191606 | 65 | 46 | 1.0 | 6.0 | 0.00 | 0.00 | 0.00 | 66 | 1016.9 |
| 20260502190028 | 66 | 22 | 0.0 | 2.0 | 0.00 | 0.00 | 0.00 | 62 | 1017.2 |
| 20260502184532 | 67 | 22 | 0.0 | 2.0 | 0.00 | 0.00 | 0.00 | 61 | 1017.6 |
| 20260502183032 | 68 | 24 | 1.0 | 4.0 | 0.00 | 0.00 | 0.00 | 58 | 1017.6 |
| 20260502181531 | 70 | 316 | 1.0 | 4.0 | 0.00 | 0.00 | 0.00 | 57 | 1017.6 |
| 20260502163029 | 59 | 104 | 1.0 | 4.0 | 0.00 | 0.00 | 0.00 | 79 | 1017.3 |
| 20260502151530 | 55 | 157 | 0.0 | 0.0 | 0.00 | 0.00 | 0.00 | 91 | 1017.0 |
| 20260502140106 | 48 | 157 | 0.0 | 0.0 | 0.00 | 0.00 | 0.00 | 92 | 1016.4 |
| 20260502130106 | 48 | 170 | 1.0 | 4.0 | 0.00 | 0.00 | 0.00 | 90 | 1015.8 |
| 20260502123031 | 49 | 180 | 0.0 | 0.0 | 0.00 | 0.00 | 0.00 | 89 | 1016.0 |
| 20260502121527 | 50 | 180 | 0.0 | 0.0 | 0.00 | 0.00 | 0.00 | 88 | 1016.0 |
| 20260502114532 | 51 | 175 | 0.0 | 2.0 | 0.00 | 0.01 | 0.00 | 88 | 1016.3 |
| 20260502113031 | 51 | 159 | 2.0 | 4.0 | 0.00 | 0.01 | 0.00 | 88 | 1016.3 |
| 20260502111529 | 51 | 149 | 2.0 | 4.0 | 0.00 | 0.01 | 0.00 | 87 | 1016.3 |
| 20260502110106 | 52 | 188 | 0.0 | 4.0 | 0.00 | 0.01 | 0.00 | 87 | 1016.4 |
| 20260502103031 | 52 | 152 | 2.0 | 4.0 | 0.00 | 0.01 | 0.00 | 87 | 1016.7 |
| 20260502101530 | 52 | 121 | 1.0 | 3.0 | 0.00 | 0.01 | 0.00 | 88 | 1016.8 |
| 20260502091532 | 50 | 112 | 0.0 | 3.0 | 0.00 | 0.01 | 0.00 | 86 | 1017.0 |
| 20260502071531 | 52 | 156 | 3.0 | 5.0 | 0.00 | 0.01 | 0.00 | 83 | 1017.2 |
| 20260502070030 | 53 | 157 | 1.0 | 3.0 | 0.00 | 0.01 | 0.00 | 83 | 1017.2 |
| 20260502064536 | 54 | 189 | 1.0 | 3.0 | 0.00 | 0.01 | 0.01 | 82 | 1017.3 |
| 20260502063029 | 54 | 122 | 0.0 | 3.0 | 0.00 | 0.01 | 0.01 | 82 | 1017.3 |
| 20260502060032 | 54 | 169 | 1.0 | 4.0 | 0.00 | 0.01 | 0.01 | 79 | 1017.1 |
| 20260502054529 | 56 | 157 | 2.0 | 4.0 | 0.00 | 0.01 | 0.01 | 77 | 1017.1 |
| 20260502051533 | 57 | 141 | 2.0 | 4.0 | 0.00 | 0.01 | 0.01 | 74 | 1017.1 |
| 20260502050042 | 58 | 176 | 1.0 | 4.0 | 0.00 | 0.01 | 0.01 | 72 | 1016.9 |
| 20260502044531 | 59 | 67 | 1.0 | 6.0 | 0.00 | 0.01 | 0.01 | 70 | 1016.6 |
| 20260502043031 | 60 | 81 | 2.0 | 4.0 | 0.00 | 0.01 | 0.01 | 69 | 1016.5 |
| 20260502041531 | 61 | 88 | 2.0 | 4.0 | 0.00 | 0.01 | 0.01 | 67 | 1016.4 |
| 20260502040034 | 62 | 118 | 3.0 | 8.0 | 0.00 | 0.01 | 0.01 | 65 | 1016.0 |
| 20260502034539 | 63 | 272 | 2.0 | 5.0 | 0.00 | 0.01 | 0.01 | 63 | 1015.9 |
| 20260502033144 | 64 | 61 | 4.0 | 6.0 | 0.00 | 0.01 | 0.01 | 61 | 1016.0 |
| 20260502031533 | 65 | 42 | 1.0 | 5.0 | 0.00 | 0.01 | 0.01 | 58 | 1016.0 |
| 20260502024534 | 67 | 221 | 1.0 | 6.0 | 0.00 | 0.01 | 0.01 | 53 | 1015.4 |
| 20260502023029 | 69 | 261 | 2.0 | 8.0 | 0.00 | 0.01 | 0.01 | 50 | 1015.0 |
| 20260502021530 | 71 | 279 | 0.0 | 5.0 | 0.00 | 0.01 | 0.01 | 50 | 1014.8 |
| 20260502020030 | 72 | 250 | 1.0 | 3.0 | 0.00 | 0.01 | 0.01 | 47 | 1014.8 |
| 20260502013031 | 75 | 309 | 0.0 | 2.0 | 0.00 | 0.01 | 0.01 | 38 | 1014.8 |
| 20260502011529 | 76 | 308 | 1.0 | 4.0 | 0.00 | 0.01 | 0.01 | 35 | 1014.8 |
| 20260502010107 | 77 | 3 | 2.0 | 6.0 | 0.00 | 0.01 | 0.01 | 35 | 1014.7 |
| 20260502004534 | 78 | 322 | 1.0 | 4.0 | 0.00 | 0.01 | 0.01 | 33 | 1014.8 |
| 20260502003029 | 78 | 11 | 1.0 | 5.0 | 0.00 | 0.01 | 0.01 | 33 | 1015.0 |
| 20260502000033 | 76 | 8 | 1.0 | 5.0 | 0.00 | 0.01 | 0.01 | 37 | 1015.2 |
| 20260501234530 | 75 | 33 | 2.0 | 7.0 | 0.00 | 0.01 | 0.01 | 37 | 1015.4 |
| 20260501231606 | 77 | 3 | 2.0 | 7.0 | 0.00 | 0.01 | 0.01 | 35 | 1015.6 |
| 20260501230031 | 78 | 52 | 1.0 | 9.0 | 0.00 | 0.01 | 0.01 | 36 | 1015.8 |
| 20260501224529 | 77 | 48 | 3.0 | 9.0 | 0.00 | 0.01 | 0.01 | 36 | 1016.0 |
| 20260501223031 | 77 | 44 | 3.0 | 10.0 | 0.00 | 0.01 | 0.01 | 37 | 1016.2 |